Location: ???? ????
(41.4149°N, 22.8816°E)
Time: 11:34:35
(UTC+00:00)

Cosmos 1818 - Pass Details

Date: 14 July 2020
Orbit: 777 x 796 km, 65.0° (Epoch: 09 August)

Event Time Altitude Azimuth Distance (km) Brightness Sun altitude
Rises 01:18:18 0° 331° (NNW) 3,307 7.1 -16.4°
Reaches altitude 10° 01:20:48 10° 336° (NNW) 2,374 6.4 -16.1°
Maximum altitude 01:26:08 52° 53° (NE) 982 4.5 -15.5°
Drops below altitude 10° 01:31:25 10° 129° (SE) 2,356 6.1 -14.8°
Sets 01:33:54 0° 135° (SE) 3,280 6.8 -14.5°
